Location: Arena
(42.5007°N, 9.4650°E)
Time: 19:10:38
(UTC+00:00)

USA 186 - Pass Details

Date: 09 April 2020
Orbit: 262 x 445 km, 96.9° (Epoch: 03 June)

Event Time Altitude Azimuth Distance (km) Brightness Sun altitude
Rises 18:05:49 0° 135° (SE) 2,413 5.1 -2.3°
Reaches altitude 10° 18:08:17 10° 116° (ESE) 1,524 4.0 -2.8°
Drops below altitude 10° 18:12:52 10° 25° (NNE) 1,472 4.4 -3.6°
Enters shadow 19:10:11 -60° 171° (S) 11,424 8.9 -13.5°
Maximum altitude 19:41:26 22° 264° (W) 984 4.2 -18.6°
